Weather History for KRKS - October, 2012

Change the Weather History Date:

Thursday, October 18, 2012

  Actual Average Record
Temperature  
Mean Temperature 45 °F 44 °F  
Max Temperature 57 °F 56 °F 75 °F (2003)
Min Temperature 32 °F 32 °F 18 °F (1976)
Degree Days  
Heating Degree Days 20 21  
Month to date heating degree days 316 327  
Since 1 July heating degree days 445 655  
Cooling Degree Days 0 0  
Month to date cooling degree days 0 0  
Year to date cooling degree days 541 286  
Moisture  
Dew Point 14 °F    
Average Humidity 30    
Maximum Humidity 41    
Minimum Humidity 19    
Precipitation  
Precipitation 0.00 in 0.03 in 0.26 in (1969)
Month to date precipitation 0.01 0.52  
Year to date precipitation 2.70 7.22  
Snow  
Snow 0.00 in - - ()
Snow Depth 0.00 in    
Sea Level Pressure  
Sea Level Pressure 30.19 in    
Wind  
Wind Speed 19 mph (West)    
Max Wind Speed 25 mph    
Max Gust Speed 35 mph    
Visibility 10 miles    
Events      
T = Trace of Precipitation, MM = Missing Value Source: NWS Daily Summary

Daily Weather History Graph

Daily Weather History Graph

Search for Another Location

Airport or City:

Trip Planner

Search our weather history database for the weather conditions in past years. The results will help you decide how hot, cold, wet, or windy it might be!

Date:

Astronomy

Oct. 18, 2012 Rise Set
Actual Time 7:32 AM MDT 6:29 PM MDT
Civil Twilight 7:04 AM MDT 6:57 PM MDT
Nautical Twilight 6:31 AM MDT 7:29 PM MDT
Astronomical Twilight 5:59 AM MDT 8:01 PM MDT
Moon 11:20 AM MDT (10/18) 9:04 PM MDT (10/18)
Length of Visible Light 11h 53m
Length of Day
10h 57m
Waxing Crescent, 15% of the Moon is Illuminated
Oct 18
Waxing Crescent
Oct 21
First Quarter
Oct 29
Full
Nov 6
Last Quarter
Nov 13
New

Hourly Weather History & Observations

Time (MDT) Temp. Windchill Dew Point Humidity Pressure Visibility Wind Dir Wind Speed Gust Speed Precip Events Conditions
12:54 AM 33.1 °F 20.9 °F 12.9 °F 43% 30.19 in 10.0 mi West 21.9 mph - N/A   Clear
1:54 AM 34.0 °F 21.8 °F 12.9 °F 42% 30.17 in 10.0 mi West 23.0 mph - N/A   Clear
2:54 AM 34.0 °F 22.7 °F 12.0 °F 40% 30.18 in 10.0 mi West 19.6 mph - N/A   Clear
3:54 AM 33.1 °F 21.5 °F 10.9 °F 40% 30.19 in 10.0 mi West 19.6 mph - N/A   Clear
4:54 AM 33.1 °F 22.6 °F 10.9 °F 40% 30.19 in 10.0 mi West 16.1 mph - N/A   Clear
5:54 AM 33.1 °F 21.2 °F 10.9 °F 40% 30.21 in 10.0 mi West 20.7 mph - N/A   Clear
6:54 AM 32.0 °F 22.5 °F 10.9 °F 42% 30.25 in 10.0 mi SW 12.7 mph - N/A   Clear
7:54 AM 33.1 °F 24.4 °F 10.9 °F 40% 30.27 in 10.0 mi West 11.5 mph - N/A   Clear
8:54 AM 36.0 °F 27.1 °F 12.0 °F 37% 30.28 in 10.0 mi West 13.8 mph - N/A   Clear
9:54 AM 41.0 °F 31.1 °F 10.0 °F 28% 30.26 in 10.0 mi West 23.0 mph 31.1 mph N/A   Clear
10:54 AM 45.0 °F 36.4 °F 10.0 °F 24% 30.25 in 10.0 mi West 23.0 mph 29.9 mph N/A   Clear
11:54 AM 48.9 °F - 10.0 °F 21% 30.22 in 10.0 mi West 19.6 mph 27.6 mph N/A   Clear
12:54 PM 51.1 °F - 10.9 °F 20% 30.21 in 10.0 mi West 21.9 mph 33.4 mph N/A   Clear
1:54 PM 54.0 °F - 12.9 °F 20% 30.17 in 10.0 mi West 20.7 mph 31.1 mph N/A   Clear
2:54 PM 55.9 °F - 15.1 °F 20% 30.14 in 10.0 mi West 23.0 mph 28.8 mph N/A   Clear
3:54 PM 55.9 °F - 15.1 °F 20% 30.14 in 10.0 mi West 25.3 mph 31.1 mph N/A   Clear
5:54 PM 54.0 °F - 18.0 °F 24% 30.14 in 10.0 mi West 24.2 mph 29.9 mph N/A   Clear
6:54 PM 51.1 °F - 19.0 °F 28% 30.17 in 10.0 mi WSW 20.7 mph - N/A   Clear
8:54 PM 48.0 °F - 19.0 °F 32% 30.15 in 10.0 mi West 17.3 mph 27.6 mph N/A   Clear
9:54 PM 46.9 °F - 19.0 °F 33% 30.14 in 10.0 mi West 18.4 mph - N/A   Clear
10:54 PM 44.1 °F 37.1 °F 19.0 °F 37% 30.14 in 10.0 mi West 15.0 mph - N/A   Clear
11:54 PM 43.0 °F 36.8 °F 19.0 °F 38% 30.13 in 10.0 mi SW 11.5 mph - N/A   Clear